Location: Central Falls
(41.8900°N, 71.3929°W)
Time: 12:30:14
(UTC+00:00)

Courier 1B Rocket - Pass Details

Date: 12 December 2023
Orbit: 920 x 1202 km, 28.2° (Epoch: 01 March)

Event Time Altitude Azimuth Distance (km) Brightness Sun altitude
Rises 12:28:40 0° 208° (SSW) 4,038 8.3 3.0°
Reaches altitude 10° 12:33:23 10° 183° (S) 3,030 8.1 3.8°
Maximum altitude 12:36:35 13° 157° (SSE) 2,755 8.5 4.2°
Drops below altitude 10° 12:39:44 10° 131° (SE) 2,950 10.3 4.7°
Sets 12:44:10 0° 106° (ESE) 3,841 9.6 5.4°
